Wind_Speed
25 26 27 27 28 28 29 29 30 30 32 33 34 35 35 35 36 37 38 39 40 40 41 42 43 43 43 43 45 46 46 45 45 44 43 41 39 37
27 28 29 30 30 31 31 32 32 33 33 35 37 37 37 37 38 38 39 41 41 42 42 43 44 44 44 45 46 47 46 46 45 46 45 44 42 40
30 31 31 32 32 33 34 35 35 35 35 36 38 39 40 40 41 41 41 42 43 43 44 44 44 45 46 46 47 48 49 47 46 46 47 46 45 43
32 33 33 33 34 35 35 36 37 37 37 37 39 41 41 42 42 43 43 43 44 45 45 45 46 46 47 47 48 49 49 49 48 48 48 47 47 45
34 34 35 35 36 36 36 37 37 37 37 37 38 40 41 42 43 43 43 44 44 45 46 47 47 47 48 49 49 49 50 50 49 49 49 49 48 47
35 36 36 37 37 37 37 37 37 37 37 36 37 38 40 41 42 43 43 44 45 46 47 48 48 48 48 49 49 49 50 50 50 50 50 50 50 49
37 37 38 38 38 38 37 37 37 36 36 36 36 37 38 39 40 41 42 43 44 45 47 48 49 49 49 50 50 50 50 51 51 50 50 50 51 50
38 39 39 39 39 38 38 37 37 36 36 36 36 36 36 38 38 39 39 41 42 45 46 47 49 50 50 51 51 51 51 51 51 51 50 50 50 50
39 39 40 40 39 39 38 37 37 37 36 36 35 35 36 37 37 37 38 39 39 42 44 45 48 49 50 50 51 51 51 52 51 52 51 51 50 50
40 41 41 41 40 39 38 37 37 37 36 35 34 34 35 36 36 37 38 38 39 41 43 43 46 47 49 49 50 50 51 52 51 52 52 52 51 51
42 42 42 41 40 39 37 37 37 37 36 35 33 33 34 35 35 36 36 37 37 40 42 42 43 46 48 48 49 50 51 52 52 51 52 53 52 52
44 44 43 42 40 38 37 36 36 36 36 34 34 33 34 35 35 35 36 36 36 38 41 41 42 45 46 47 48 49 50 51 52 52 52 53 53 53
45 44 43 42 40 38 37 36 35 35 34 34 34 34 34 35 36 36 36 36 36 37 40 41 42 44 45 46 47 48 49 50 51 51 52 52 53 53
46 45 43 42 40 38 37 36 36 34 34 33 33 33 33 34 34 35 35 36 36 37 39 41 41 43 44 46 47 47 48 49 50 51 51 52 52 53
46 45 43 41 40 38 37 36 35 34 33 32 32 32 32 32 33 33 34 35 35 36 38 40 41 42 43 44 46 48 47 48 50 50 51 52 52 52
46 44 42 40 39 37 36 35 34 33 32 31 31 31 31 31 31 32 33 34 34 35 36 38 40 42 43 43 46 47 47 46 47 49 50 51 51 50
46 43 41 40 38 37 35 34 33 32 31 31 30 30 30 30 30 31 32 33 33 34 36 37 39 41 43 43 44 46 48 47 46 47 49 49 50 50
45 42 40 39 37 35 34 32 32 31 30 30 29 29 29 30 30 31 31 32 32 33 35 36 38 40 41 42 43 45 47 48 47 47 48 48 48 49
44 41 39 38 36 34 32 31 30 30 29 29 29 28 28 29 29 30 30 30 31 32 34 35 36 38 40 40 41 44 46 48 48 47 46 47 48 48
42 40 38 36 35 33 31 30 29 28 28 28 28 27 28 28 28 28 29 29 30 31 33 34 35 36 38 40 41 42 44 46 47 47 47 46 47 48
40 39 37 35 33 31 29 29 28 28 28 28 27 27 27 27 27 27 28 28 29 30 31 33 35 36 37 39 39 40 42 44 46 47 46 47 46 47
37 35 34 32 31 30 29 29 28 28 28 28 28 28 27 27 26 26 26 27 28 29 30 32 35 36 36 37 38 40 42 44 45 46 46 47 47 45
33 32 30 29 29 29 28 29 28 28 27 27 27 27 26 26 25 25 26 26 27 28 30 32 34 35 36 37 38 40 42 44 45 45 46 47 48 47
Wind_Direction
306 304 301 298 295 290 286 282 278 275 272 269 266 263 260 257 254 251 249 247 245 244 243 242 241 239 239 237 235 234 234 234 234 234 234 235 236 238
306 304 302 301 298 294 290 286 282 277 273 270 268 265 261 258 255 253 250 248 246 245 244 243 241 240 238 237 235 234 234 234 234 234 234 235 236 237
305 303 302 302 299 295 292 289 285 280 275 271 269 266 263 260 256 253 250 249 246 245 244 242 241 239 238 237 236 235 235 235 235 234 234 235 235 236
305 304 303 302 299 296 294 290 287 283 278 273 270 267 264 261 258 255 252 250 248 246 243 242 241 239 238 237 236 236 235 234 235 235 234 234 235 236
305 304 303 302 300 298 296 292 289 285 280 275 271 268 265 261 258 255 252 250 248 246 244 242 241 240 239 238 236 236 235 235 235 234 234 233 234 235
306 305 304 303 302 299 297 294 290 286 282 277 273 269 266 263 259 256 253 250 247 245 244 243 241 240 239 238 236 236 235 234 234 234 233 233 233 234
307 306 306 304 302 300 297 294 290 287 283 279 275 270 266 263 260 256 253 251 248 246 244 242 241 240 238 237 236 235 235 234 233 232 233 233 232 232
307 307 306 303 302 300 296 293 290 287 283 279 276 271 266 263 261 258 254 251 249 247 244 242 241 239 238 236 236 235 234 233 233 232 231 232 232 232
307 307 306 304 302 299 295 292 289 286 282 278 275 270 266 263 261 258 255 252 249 248 245 242 241 238 237 236 235 234 234 233 233 232 231 231 231 231
307 307 306 304 301 299 295 292 289 285 281 278 274 270 267 265 262 259 256 253 250 248 245 242 240 238 235 234 234 233 233 232 232 232 230 229 229 230
307 306 305 302 300 298 295 291 288 284 280 277 274 270 267 265 263 259 256 253 250 247 246 242 239 237 233 232 232 232 231 231 231 230 230 228 228 228
307 305 303 301 299 296 293 290 286 282 279 277 274 270 267 264 262 260 257 253 250 247 246 242 239 236 233 231 230 230 229 229 230 229 229 228 228 228
305 304 303 300 297 294 291 289 285 282 279 276 273 271 268 264 262 260 258 254 251 247 246 244 240 237 233 231 230 228 227 227 227 227 227 226 226 227
303 302 300 298 295 292 290 287 284 281 278 275 273 271 269 265 263 261 258 255 252 248 246 245 242 239 235 232 230 228 226 226 226 226 225 225 225 226
301 299 297 295 292 290 288 285 283 280 277 275 274 271 268 266 264 261 258 256 253 250 247 245 242 240 237 233 230 228 226 224 225 225 225 224 224 225
297 295 294 293 291 288 286 284 281 280 277 275 273 271 268 266 264 261 258 256 253 251 249 245 242 239 237 234 231 229 226 223 223 223 223 223 222 223
293 291 291 290 290 288 285 282 280 279 277 274 272 271 268 266 264 262 259 257 254 251 249 245 241 239 237 234 231 228 227 224 222 222 221 221 221 220
289 288 288 288 287 286 284 281 280 278 275 273 272 270 268 266 265 263 261 257 254 251 247 244 241 238 236 234 231 229 227 225 224 223 221 219 219 219
284 284 285 285 285 284 281 280 279 278 275 274 273 271 269 267 265 263 261 257 253 250 247 244 241 238 235 233 231 228 226 224 223 222 220 219 218 218
280 281 282 283 282 281 279 279 278 277 275 274 273 271 270 268 266 263 260 257 253 250 246 243 241 238 235 232 230 228 224 223 223 221 219 218 217 217
277 278 278 279 279 278 278 278 278 277 275 274 272 270 270 269 267 262 259 257 255 251 246 243 240 238 235 231 228 226 223 221 220 218 217 217 216 216
272 275 276 276 276 276 277 278 278 277 276 274 272 270 270 268 263 260 259 256 254 250 245 242 239 237 235 232 227 224 222 220 218 216 215 215 215 215
269 271 273 274 276 276 276 277 277 276 276 274 272 270 267 264 260 259 259 257 254 250 245 242 239 237 235 232 228 224 221 218 216 214 213 214 215 214
Height
5817 5815 5812 5810 5809 5807 5806 5805 5804 5803 5802 5801 5801 5802 5803 5804 5805 5806 5807 5809 5812 5815 5817 5820 5824 5828 5832 5836 5840 5845 5850 5855 5860 5865 5870 5875 5879 5883
5810 5808 5805 5802 5800 5798 5796 5795 5794 5793 5792 5790 5790 5790 5791 5792 5793 5795 5797 5798 5801 5803 5806 5809 5813 5817 5821 5825 5830 5835 5840 5845 5850 5855 5860 5865 5870 5874
5803 5800 5797 5794 5791 5789 5786 5784 5783 5782 5781 5780 5778 5778 5779 5780 5781 5783 5785 5787 5789 5792 5795 5798 5802 5805 5810 5814 5819 5824 5829 5835 5840 5845 5850 5856 5861 5866
5795 5792 5788 5785 5782 5779 5776 5773 5771 5769 5769 5768 5766 5765 5766 5767 5768 5770 5772 5774 5777 5780 5783 5786 5790 5794 5798 5803 5807 5812 5818 5823 5829 5834 5840 5846 5851 5856
5786 5783 5779 5776 5772 5769 5765 5762 5759 5757 5756 5755 5754 5753 5753 5753 5755 5757 5759 5762 5764 5767 5770 5774 5777 5781 5786 5791 5795 5801 5806 5812 5818 5823 5828 5834 5840 5846
5777 5773 5769 5765 5761 5758 5754 5751 5748 5745 5743 5742 5741 5740 5740 5740 5742 5743 5745 5748 5751 5753 5757 5760 5765 5769 5774 5779 5784 5789 5794 5799 5805 5811 5817 5823 5829 5835
5768 5763 5759 5754 5750 5746 5743 5739 5736 5734 5731 5730 5729 5728 5727 5727 5728 5730 5732 5734 5737 5739 5743 5747 5751 5756 5760 5765 5770 5776 5781 5787 5793 5799 5805 5811 5817 5823
5758 5753 5748 5744 5739 5735 5731 5728 5725 5722 5720 5718 5717 5716 5715 5714 5715 5717 5719 5721 5724 5726 5729 5733 5737 5742 5746 5752 5757 5763 5768 5774 5780 5787 5793 5799 5805 5812
5747 5742 5737 5732 5728 5724 5720 5716 5713 5710 5708 5706 5705 5704 5703 5703 5703 5705 5706 5708 5711 5712 5715 5720 5723 5728 5733 5738 5744 5750 5756 5762 5768 5774 5781 5787 5794 5800
5736 5731 5726 5721 5716 5712 5708 5705 5701 5698 5696 5694 5694 5692 5691 5691 5691 5692 5693 5696 5698 5699 5701 5706 5709 5714 5719 5725 5730 5736 5742 5749 5755 5761 5768 5775 5782 5788
5724 5719 5714 5709 5704 5700 5697 5694 5690 5687 5684 5683 5682 5681 5680 5679 5679 5680 5681 5683 5685 5687 5688 5693 5697 5700 5706 5712 5717 5723 5729 5736 5742 5749 5755 5762 5769 5776
5712 5707 5702 5697 5692 5688 5685 5682 5679 5675 5673 5672 5670 5669 5668 5668 5667 5668 5669 5671 5673 5675 5676 5680 5684 5687 5694 5699 5704 5710 5716 5723 5729 5736 5743 5750 5757 5763
5699 5694 5689 5684 5680 5676 5672 5670 5667 5664 5662 5660 5659 5658 5657 5656 5656 5657 5658 5659 5661 5664 5665 5668 5672 5676 5681 5687 5692 5698 5704 5710 5717 5723 5731 5738 5744 5751
5686 5681 5676 5671 5668 5664 5661 5657 5655 5653 5651 5649 5648 5646 5645 5645 5645 5645 5646 5648 5650 5652 5653 5656 5660 5664 5669 5674 5680 5685 5692 5698 5705 5712 5719 5726 5732 5740
5673 5668 5663 5659 5655 5652 5649 5646 5643 5641 5639 5638 5637 5635 5634 5634 5634 5634 5635 5636 5638 5640 5642 5644 5648 5652 5656 5662 5667 5673 5679 5686 5693 5700 5706 5714 5721 5728
5659 5655 5650 5646 5643 5640 5637 5634 5632 5630 5628 5627 5626 5624 5623 5623 5623 5623 5624 5625 5627 5629 5631 5633 5636 5640 5645 5650 5655 5661 5667 5674 5681 5688 5694 5702 5709 5717
5645 5642 5638 5634 5631 5628 5625 5623 5621 5619 5617 5616 5615 5614 5613 5612 5612 5612 5613 5614 5616 5618 5619 5621 5624 5628 5633 5638 5644 5650 5656 5663 5669 5676 5683 5691 5698 5706
5631 5628 5625 5622 5619 5616 5614 5612 5610 5608 5606 5605 5604 5603 5603 5602 5602 5602 5602 5603 5605 5606 5608 5610 5613 5617 5622 5628 5633 5639 5645 5651 5658 5664 5672 5680 5688 5695
5617 5615 5612 5610 5607 5605 5603 5601 5599 5597 5596 5595 5594 5593 5593 5592 5592 5592 5592 5593 5594 5596 5597 5600 5602 5606 5612 5617 5622 5627 5633 5640 5646 5654 5662 5669 5678 5685
5603 5601 5599 5598 5596 5594 5592 5591 5589 5588 5586 5585 5584 5583 5582 5582 5582 5582 5582 5583 5584 5585 5587 5590 5593 5596 5601 5606 5610 5616 5622 5629 5637 5644 5652 5659 5667 5674
5589 5588 5587 5586 5584 5583 5582 5580 5579 5578 5577 5576 5575 5574 5573 5572 5572 5572 5572 5573 5574 5575 5577 5580 5583 5586 5590 5595 5602 5607 5613 5619 5626 5634 5642 5649 5657 5664
5576 5576 5575 5574 5573 5572 5571 5570 5569 5568 5567 5566 5565 5564 5563 5563 5563 5563 5563 5563 5564 5566 5568 5570 5572 5576 5581 5586 5591 5597 5602 5609 5616 5623 5632 5640 5647 5656
5564 5564 5564 5563 5563 5562 5561 5560 5559 5558 5556 5555 5555 5554 5553 5553 5553 5554 5554 5554 5555 5557 5558 5560 5563 5567 5571 5576 5581 5586 5592 5599 5606 5614 5622 5630 5638 5645